TJS-10

导读

TJS-10(通信技术试验卫星十号)是中国研制的通信技术试验卫星,于北京时间2023年11月3日22时54分,由长征七号改运载火箭在文昌航天发射场成功发射,卫星顺利进入预定轨道,发射任务圆满成功。该卫星主要用于开展多频段、高速率卫星通信技术验证,由上海航天技术研究院开发,将进入地球静止轨道。这是长征系列运载火箭第495次飞行。

Basic Information
目录编号:
58204
目录名称:
TJS-10
国际标识:
2023-169A
轨道中心:
EARTH
卫星名称:
TJS-10
卫星全名:
--
卫星状态:
在轨 (已飞行1046 天)
发射日期:
2023-11-03 UTC
国别 :
中国 (CN)
星等 :
--
This satellite is enrolled in the Space Conjunction Data Service (SCDS) and the current flight risk assessment level is: No High Risk
Orbit Information
数据来源 国际轨道数据 AOE轨道数据
星历时间 2026-09-14T00:00:16+0800
14小时前
查看轨道信息
2026-09-13T01:00:00+0800
1天前
查看轨道信息
半长轴 42163.691km 42163.635km
偏心率 0.0004121 0.0004354
轨道倾角 2.766° 2.764°
近地点辐角 130.198° 122.231°
升交点赤经 79.351° 79.364°
平近点角 115.546° 137.479°
近地点 35768.178km 35767.139km
远地点 35802.93km 35803.857km
周期 1436.044分钟 1436.041分钟
每日圈数 1.002755 1.002757
Detailed Information
使用方式:
暂无
2D Orbit Map
3D Orbit Map
Orbit Altitude Analysis Chart
Orbit Inclination Analysis Chart
Orbit Comprehensive Analysis Chart
View Comprehensive Chart
Conjunction Data List
Event ID Objects TCA Miss Dist (km) Collision Risk Probability Collision Risk Index (CRI) Action
CDM_260916-111503-305105-820424
TJS-10 (58204)
2026-09-16T
11:15:18+0000
1.985 km
极远距离
4.139724E-7 极低风险 0.27
Miss Distance Evolution Trend with All Objects Subscribe to Flight Safety Assessment
Collision Probability Evolution Trend with All Objects Subscribe to Flight Safety Assessment